Flood From: 18-02-2018 16:00 Until: 19-02-2018 16:00 warning for: Flood Level: Yellow info button

Although rather usual in this region, locally or potentially dangerous phenomena are expected. (such as local winds, summer thunderstorms, rising streams or high waves) Be aware and pay attention to the latest weather updates, especially if you carry out activities exposed to weather or close to a stream or shoreline. 


Meteo18 Weather Cam more information Meteo18 Weather Cam


Thunder radar more information blitzortung!


Rain radar more information rain snow radar


Visit our other weather sites:

Template documentation
and downloads

And another site



Weather Underground History page Text

Daily Summary for January 17, 2018 Units:  Metric    English   Both
« Previous Day
Next Day »
Daily Weekly Monthly Yearly Custom
  High: Low: Average:
Temperature: -17.8 °C -16.1 °C -14.7 °C
Dew Point: -17.8 °C -17.3 °C -16.7 °C
Humidity: Humidity % 64 % 78 %
Wind Speed: 0 km/h 2.3 km/h 26.9 km/h
Wind Gust: 0 km/h - -
Wind:- - West
Pressure: 0 hPa 34063.2 hPa -
Precipitation: 50.8 mm    
Historical Graphs
 
 
Tabular Data for January 17, 2018
Time Temperature Dew Point Pressure Wind Wind Speed Wind Gust Humidity Rainfall Rate (Hourly)
-17.8 °C -17.8 °C 0 hPa Calm     Humidity % 0 mm
00:01 -13.6 °C -15.2 °C 34063.2 hPa West 41.7 km/h 46.7 km/h 82 % 0 mm
00:07 -13.7 °C -15.3 °C 34063.2 hPa West 38.8 km/h 59.5 km/h 82 % 0 mm
00:17 -13.6 °C -15.4 °C 34063.2 hPa South 17.9 km/h 72.6 km/h 80 % 0 mm
00:27 -13.8 °C -15.6 °C 34063.2 hPa West 44.1 km/h 62.1 km/h 80 % 0 mm
00:33 -13.9 °C -15.6 °C 34073.3 hPa West 46.3 km/h 64.7 km/h 81 % 0 mm
00:39 -14.1 °C -15.7 °C 34073.3 hPa WNW 33.6 km/h 54.4 km/h 82 % 0 mm
00:45 -14.1 °C -15.6 °C 34073.3 hPa West 56.6 km/h 57 km/h 83 % 0 mm
00:51 -14 °C -15.6 °C 34073.3 hPa WSW 44.1 km/h 57 km/h 82 % 0 mm
01:03 -13.9 °C -15.4 °C 34073.3 hPa West 31.4 km/h 59.5 km/h 83 % 0 mm
01:09 -14 °C -15.4 °C 34073.3 hPa West 38.8 km/h 49.2 km/h 84 % 0 mm
01:15 -13.9 °C -15.4 °C 34086.9 hPa WNW 38.8 km/h 57 km/h 83 % 0 mm
01:27 -13.8 °C -15.8 °C 34086.9 hPa WSW 23 km/h 49.2 km/h 78 % 0 mm
01:33 -13.8 °C -15.7 °C 34086.9 hPa WSW 20.9 km/h 36.2 km/h 79 % 0 mm
01:39 -13.8 °C -15.6 °C 34073.3 hPa WNW 36.5 km/h 44.1 km/h 80 % 0 mm
01:45 -13.9 °C -15.6 °C 34086.9 hPa West 23 km/h 33.6 km/h 81 % 0 mm
01:57 -13.9 °C -15.7 °C 34097 hPa WNW 28.5 km/h 49.2 km/h 80 % 0 mm
02:03 -13.8 °C -15.7 °C 34097 hPa West 41.7 km/h 46.7 km/h 79 % 0 mm
02:09 -13.8 °C -16 °C 34097 hPa West 54.4 km/h 62.1 km/h 76 % 0 mm
02:15 -13.8 °C -15.9 °C 34097 hPa WSW 33.6 km/h 49.2 km/h 77 % 0 mm
02:23 -13.8 °C -16.2 °C 34097 hPa West 31.4 km/h 69.8 km/h 74 % 0 mm
02:29 -13.8 °C -16.2 °C 34097 hPa West 28.5 km/h 62.1 km/h 74 % 0 mm
02:35 -13.9 °C -16.3 °C 34097 hPa WNW 23 km/h 51.8 km/h 74 % 0 mm
02:41 -13.9 °C -16.3 °C 34107.2 hPa WNW 36.5 km/h 57 km/h 74 % 0 mm
02:47 -13.9 °C -16.2 °C 34107.2 hPa West 38.8 km/h 54.4 km/h 75 % 0 mm
02:53 -13.9 °C -16.3 °C 34107.2 hPa WSW 36.5 km/h 51.8 km/h 74 % 0 mm
02:59 -13.9 °C -16.3 °C 34120.7 hPa West 36.5 km/h 49.2 km/h 74 % 0 mm
03:05 -14 °C -16.4 °C 34130.9 hPa WNW 7.6 km/h 46.7 km/h 74 % 0 mm
03:11 -14.6 °C -16.3 °C 34154.6 hPa WNW 31.4 km/h 54.4 km/h 81 % 0 mm
03:23 -15.7 °C -16.8 °C 34164.7 hPa WNW 46.3 km/h 103.6 km/h 86 % 25.4 mm
03:29 -15.9 °C -16.8 °C 34164.7 hPa WSW 31.4 km/h 51.8 km/h 89 % 38.1 mm
03:35 -16.1 °C -16.9 °C 34154.6 hPa WNW 31.4 km/h 54.4 km/h 90 % 38.1 mm
03:41 -16.1 °C -16.9 °C 34144.4 hPa West 20.9 km/h 49.2 km/h 89 % 45.72 mm
03:51 -15.9 °C -16.9 °C 34154.6 hPa WNW 33.6 km/h 59.5 km/h 88 % 45.72 mm
03:57 -15.8 °C -16.8 °C 34154.6 hPa WNW 44.1 km/h 59.5 km/h 88 % 45.72 mm
04:03 -15.8 °C -16.7 °C 34154.6 hPa WNW 26.2 km/h 54.4 km/h 89 % 50.8 mm
04:09 -15.9 °C -16.8 °C 34144.4 hPa WSW 23 km/h 57 km/h 89 % 50.8 mm
04:17 -15.8 °C -16.7 °C 34164.7 hPa WNW 31.4 km/h 46.7 km/h 89 % 38.1 mm
04:23 -15.7 °C -16.7 °C 34178.3 hPa West 38.8 km/h 44.1 km/h 88 % 25.4 mm
04:29 -15.6 °C -16.8 °C 34164.7 hPa WSW 38.8 km/h 46.7 km/h 86 % 12.7 mm
04:37 -15.6 °C -16.9 °C 34178.3 hPa West 31.4 km/h 57 km/h 84 % 7.62 mm
04:43 -15.6 °C -17.1 °C 34178.3 hPa West 33.6 km/h 49.2 km/h 83 % 7.62 mm
04:49 -15.6 °C -17.1 °C 34188.4 hPa West 26.2 km/h 57 km/h 83 % 7.62 mm
04:57 -15.7 °C -17.1 °C 34188.4 hPa WNW 28.5 km/h 38.8 km/h 84 % 7.62 mm
05:03 -15.6 °C -17 °C 34198.6 hPa West 10.3 km/h 44.1 km/h 84 % 0 mm
05:09 -15.6 °C -16.9 °C 34198.6 hPa WNW 15.6 km/h 46.7 km/h 85 % 0 mm
05:15 -15.6 °C -16.9 °C 34198.6 hPa West 38.8 km/h 54.4 km/h 85 % 0 mm
05:25 -15.5 °C -16.8 °C 34212.1 hPa West 23 km/h 38.8 km/h 85 % 0 mm
05:31 -15.4 °C -16.7 °C 34212.1 hPa WNW 44.1 km/h 44.1 km/h 85 % 0 mm
05:41 -15.4 °C -16.8 °C 34198.6 hPa West 28.5 km/h 44.1 km/h 84 % 0 mm
05:47 -15.4 °C -16.7 °C 34222.3 hPa WSW 23 km/h 51.8 km/h 85 % 0 mm
05:53 -15.5 °C -16.7 °C 34222.3 hPa WSW 44.1 km/h 46.7 km/h 86 % 0 mm
05:59 -15.5 °C -16.7 °C 34222.3 hPa WNW 26.2 km/h 36.2 km/h 86 % 0 mm
06:05 -15.5 °C -16.7 °C 34222.3 hPa West 46.3 km/h 46.7 km/h 86 % 0 mm
06:11 -15.4 °C -16.7 °C 34222.3 hPa WSW 26.2 km/h 49.2 km/h 85 % 0 mm
06:21 -15.4 °C -16.7 °C 34222.3 hPa WSW 15.6 km/h 41.4 km/h 85 % 0 mm
06:27 -15.4 °C -16.7 °C 34222.3 hPa West 20.9 km/h 41.4 km/h 85 % 0 mm
06:33 -15.4 °C -16.7 °C 34222.3 hPa West 33.6 km/h 54.4 km/h 85 % 0 mm
06:39 -15.4 °C -16.7 °C 34222.3 hPa WSW 28.5 km/h 51.8 km/h 85 % 0 mm
06:45 -15.4 °C -16.8 °C 34235.8 hPa West 51.5 km/h 51.8 km/h 84 % 0 mm
06:51 -15.4 °C -16.8 °C 34235.8 hPa WNW 23 km/h 54.4 km/h 84 % 0 mm
06:57 -15.4 °C -16.9 °C 34246 hPa West 36.5 km/h 41.4 km/h 83 % 0 mm
07:03 -15.4 °C -17 °C 34246 hPa WSW 28.5 km/h 46.7 km/h 82 % 0 mm
07:09 -15.4 °C -16.9 °C 34256.2 hPa WNW 20.9 km/h 44.1 km/h 82 % 0 mm
07:15 -15.3 °C -17 °C 34256.2 hPa West 15.6 km/h 41.4 km/h 81 % 0 mm
07:27 -15.3 °C -17 °C 34256.2 hPa West 31.4 km/h 44.1 km/h 81 % 0 mm
07:35 -15.3 °C -17 °C 34269.7 hPa West 31.4 km/h 44.1 km/h 80 % 0 mm
07:41 -15.3 °C -17 °C 34279.9 hPa West 36.5 km/h 44.1 km/h 81 % 0 mm
07:47 -15.3 °C -17 °C 34269.7 hPa WSW 28.5 km/h 51.8 km/h 80 % 0 mm
07:53 -15.3 °C -16.9 °C 34279.9 hPa WSW 41.7 km/h 49.2 km/h 81 % 0 mm
08:03 -15.3 °C -17 °C 34279.9 hPa West 33.6 km/h 51.8 km/h 81 % 0 mm
08:09 -15.3 °C -17 °C 34293.4 hPa West 17.9 km/h 36.2 km/h 80 % 0 mm
08:17 -15.2 °C -17.1 °C 34293.4 hPa West 46.3 km/h 46.7 km/h 79 % 0 mm
08:23 -15.2 °C -17.1 °C 34293.4 hPa West 33.6 km/h 54.4 km/h 79 % 0 mm
08:29 -15.2 °C -17.1 °C 34303.6 hPa West 36.5 km/h 44.1 km/h 79 % 0 mm
08:35 -15.2 °C -17.1 °C 34293.4 hPa West 38.8 km/h 51.8 km/h 79 % 0 mm
08:41 -15.2 °C -17.1 °C 34303.6 hPa West 20.9 km/h 49.2 km/h 79 % 0 mm
08:53 -15.2 °C -17.1 °C 34313.7 hPa West 20.9 km/h 36.2 km/h 79 % 0 mm
08:59 -15.2 °C -17.1 °C 34327.3 hPa WNW 31.4 km/h 59.5 km/h 78 % 0 mm
09:09 -15.1 °C -17.1 °C 34337.4 hPa West 33.6 km/h 41.4 km/h 78 % 0 mm
09:15 -15.2 °C -17 °C 34347.6 hPa West 28.5 km/h 28.5 km/h 79 % 0 mm
09:21 -15.2 °C -17 °C 34347.6 hPa West 36.5 km/h 49.2 km/h 80 % 0 mm
09:27 -15.2 °C -17 °C 34347.6 hPa West 20.9 km/h 44.1 km/h 79 % 0 mm
09:34 -15.2 °C -17 °C 34361.1 hPa WNW 23 km/h 49.2 km/h 80 % 0 mm
09:40 -15.3 °C -16.9 °C 34361.1 hPa West 17.9 km/h 28.5 km/h 81 % 0 mm
09:46 -15.3 °C -16.9 °C 34371.3 hPa WNW 26.2 km/h 38.8 km/h 81 % 0 mm
09:52 -15.2 °C -17 °C 34371.3 hPa West 31.4 km/h 51.8 km/h 80 % 0 mm
09:58 -15.2 °C -17 °C 34384.8 hPa West 28.5 km/h 41.4 km/h 80 % 0 mm
10:04 -15.3 °C -16.9 °C 34384.8 hPa West 44.1 km/h 49.2 km/h 81 % 0 mm
10:10 -15.2 °C -16.9 °C 34384.8 hPa WNW 17.9 km/h 57 km/h 81 % 0 mm
10:16 -15.2 °C -16.9 °C 34395 hPa West 23 km/h 49.2 km/h 80 % 0 mm
10:28 -15.1 °C -16.9 °C 34395 hPa West 20.9 km/h 44.1 km/h 80 % 0 mm
10:34 -15.1 °C -16.9 °C 34405.1 hPa WSW 38.8 km/h 54.4 km/h 79 % 0 mm
10:40 -15.1 °C -16.9 °C 34405.1 hPa WNW 31.4 km/h 62.1 km/h 79 % 0 mm
10:46 -15.1 °C -16.9 °C 34405.1 hPa WNW 41.7 km/h 59.5 km/h 79 % 0 mm
10:52 -15.1 °C -16.8 °C 34405.1 hPa West 26.2 km/h 57 km/h 80 % 0 mm
11:00 -15 °C -16.8 °C 34418.7 hPa West 36.5 km/h 41.4 km/h 80 % 0 mm
11:06 -14.9 °C -16.7 °C 34428.8 hPa WNW 23 km/h 46.7 km/h 80 % 0 mm
11:12 -15.1 °C -16.7 °C 34428.8 hPa WSW 38.8 km/h 57 km/h 82 % 0 mm
11:18 -15.2 °C -16.6 °C 34428.8 hPa WNW 36.5 km/h 36.5 km/h 83 % 0 mm
11:24 -15.2 °C -16.6 °C 34442.4 hPa West 23 km/h 33.6 km/h 84 % 0 mm
11:32 -15.1 °C -16.6 °C 34442.4 hPa WSW 31.4 km/h 44.1 km/h 82 % 0 mm
11:38 -14.9 °C -16.5 °C 34452.6 hPa SW 23 km/h 33.6 km/h 82 % 0 mm
11:46 -14.9 °C -16.4 °C 34452.6 hPa West 31.4 km/h 44.1 km/h 82 % 0 mm
11:52 -14.9 °C -16.4 °C 34452.6 hPa West 38.8 km/h 41.4 km/h 83 % 0 mm
11:58 -14.9 °C -16.3 °C 34462.7 hPa West 23 km/h 36.2 km/h 84 % 0 mm
12:08 -14.9 °C -16.6 °C 34452.6 hPa West 28.5 km/h 44.1 km/h 81 % 0 mm
12:14 -14.8 °C -16.4 °C 34452.6 hPa West 12.7 km/h 44.1 km/h 81 % 0 mm
12:20 -14.7 °C -16.6 °C 34452.6 hPa WNW 41.7 km/h 54.4 km/h 78 % 0 mm
12:26 -14.6 °C -16.6 °C 34452.6 hPa WNW 15.6 km/h 46.7 km/h 78 % 0 mm
12:32 -14.6 °C -16.6 °C 34462.7 hPa WNW 36.5 km/h 57 km/h 77 % 0 mm
12:40 -14.6 °C -16.9 °C 34462.7 hPa West 26.2 km/h 46.7 km/h 75 % 0 mm
12:50 -14.3 °C -16.5 °C 34462.7 hPa WNW 26.2 km/h 33.6 km/h 76 % 0 mm
12:56 -14.3 °C -16.9 °C 34462.7 hPa WNW 28.5 km/h 36.2 km/h 72 % 0 mm
13:02 -14.3 °C -16.9 °C 34462.7 hPa West 28.5 km/h 46.7 km/h 72 % 0 mm
13:08 -14.3 °C -16.9 °C 34462.7 hPa WNW 28.5 km/h 36.2 km/h 72 % 0 mm
13:18 -14.1 °C -16.7 °C 34462.7 hPa West 31.4 km/h 49.2 km/h 72 % 0 mm
13:24 -14 °C -16.7 °C 34462.7 hPa WNW 26.2 km/h 46.7 km/h 71 % 0 mm
13:36 -13.9 °C -16.9 °C 34462.7 hPa WNW 36.5 km/h 51.8 km/h 69 % 0 mm
13:42 -13.9 °C -17 °C 34462.7 hPa NW 41.7 km/h 69.8 km/h 68 % 0 mm
13:48 -14 °C -16.9 °C 34462.7 hPa WNW 41.7 km/h 49.2 km/h 69 % 0 mm
13:54 -14 °C -17.3 °C 34462.7 hPa NW 26.2 km/h 57 km/h 66 % 0 mm
14:00 -13.8 °C -16.8 °C 34462.7 hPa WNW 20.9 km/h 33.6 km/h 69 % 0 mm
14:06 -13.8 °C -16.7 °C 34462.7 hPa WNW 23 km/h 49.2 km/h 70 % 0 mm
14:12 -13.9 °C -16.9 °C 34462.7 hPa West 36.5 km/h 46.7 km/h 69 % 0 mm
14:18 -13.9 °C -17.1 °C 34462.7 hPa NW 49.2 km/h 49.2 km/h 67 % 0 mm
14:30 -14 °C -17.3 °C 34462.7 hPa WNW 36.5 km/h 46.7 km/h 66 % 0 mm
14:38 -14 °C -17.2 °C 34462.7 hPa WNW 28.5 km/h 54.4 km/h 67 % 0 mm
14:44 -13.9 °C -17.2 °C 34462.7 hPa WNW 56.6 km/h 57 km/h 66 % 0 mm
14:50 -14 °C -17.1 °C 34462.7 hPa West 20.9 km/h 33.6 km/h 68 % 0 mm
14:56 -13.9 °C -17.2 °C 34462.7 hPa WNW 26.2 km/h 41.4 km/h 66 % 0 mm
15:02 -13.8 °C -16.9 °C 34476.3 hPa West 17.9 km/h 36.2 km/h 68 % 0 mm
15:08 -13.8 °C -17 °C 34476.3 hPa WNW 28.5 km/h 33.6 km/h 67 % 0 mm
15:14 -13.8 °C -17.1 °C 34476.3 hPa West 41.7 km/h 41.7 km/h 66 % 0 mm
15:20 -13.7 °C -17.2 °C 34476.3 hPa WSW 49.2 km/h 54.4 km/h 64 % 0 mm
15:26 -13.7 °C -17.1 °C 34476.3 hPa WNW 23 km/h 46.7 km/h 65 % 0 mm
15:32 -13.7 °C -17.3 °C 34476.3 hPa WNW 31.4 km/h 46.7 km/h 64 % 0 mm
15:38 -13.7 °C -17.1 °C 34476.3 hPa West 31.4 km/h 44.1 km/h 65 % 0 mm
15:46 -13.7 °C -17.1 °C 34476.3 hPa WSW 26.2 km/h 51.8 km/h 65 % 0 mm
15:52 -13.7 °C -17.3 °C 34476.3 hPa WNW 38.8 km/h 54.4 km/h 64 % 0 mm
15:58 -13.7 °C -17.1 °C 34486.4 hPa West 33.6 km/h 38.8 km/h 65 % 0 mm
16:04 -13.7 °C -17.1 °C 34486.4 hPa WNW 23 km/h 46.7 km/h 65 % 0 mm
16:10 -13.7 °C -17 °C 34486.4 hPa West 20.9 km/h 38.8 km/h 66 % 0 mm
16:16 -13.8 °C -17.2 °C 34486.4 hPa WSW 38.8 km/h 49.2 km/h 65 % 0 mm
16:22 -13.9 °C -17.1 °C 34496.6 hPa West 17.9 km/h 33.6 km/h 67 % 0 mm
16:28 -13.9 °C -17.1 °C 34496.6 hPa NW 15.6 km/h 38.8 km/h 67 % 0 mm
16:34 -14 °C -17.2 °C 34496.6 hPa WNW 12.7 km/h 44.1 km/h 67 % 0 mm
16:40 -13.9 °C -17.1 °C 34496.6 hPa West 23 km/h 41.4 km/h 67 % 0 mm
16:46 -13.9 °C -17 °C 34496.6 hPa WNW 15.6 km/h 33.6 km/h 68 % 0 mm
16:52 -14 °C -17.1 °C 34496.6 hPa WSW 17.9 km/h 31.1 km/h 68 % 0 mm
16:58 -14.1 °C -16.9 °C 34496.6 hPa West 15.6 km/h 18.2 km/h 70 % 0 mm
17:04 -14.1 °C -16.8 °C 34496.6 hPa WSW 23 km/h 28.5 km/h 71 % 0 mm
17:10 -14.2 °C -16.9 °C 34510.1 hPa West 17.9 km/h 23.3 km/h 71 % 0 mm
17:16 -14.2 °C -16.9 °C 34510.1 hPa West 17.9 km/h 23.3 km/h 71 % 0 mm
17:25 -14.3 °C -17.1 °C 34510.1 hPa WSW 23 km/h 28.5 km/h 71 % 0 mm
17:31 -14.3 °C -17.1 °C 34510.1 hPa West 15.6 km/h 28.5 km/h 71 % 0 mm
17:38 -14.3 °C -17.1 °C 34510.1 hPa WSW 17.9 km/h 25.9 km/h 71 % 0 mm
17:46 -14.3 °C -17.1 °C 34520.3 hPa West 12.7 km/h 28.5 km/h 71 % 0 mm
17:52 -14.3 °C -17.1 °C 34520.3 hPa WSW 15.6 km/h 25.9 km/h 71 % 0 mm
17:58 -14.3 °C -17.1 °C 34520.3 hPa West 10.3 km/h 20.8 km/h 71 % 0 mm
18:04 -14.3 °C -17 °C 34520.3 hPa SW 15.6 km/h 20.8 km/h 71 % 0 mm
18:12 -14.3 °C -16.9 °C 34520.3 hPa SW 15.6 km/h 20.8 km/h 72 % 0 mm
18:20 -14.3 °C -16.8 °C 34520.3 hPa SW 17.9 km/h 18.2 km/h 73 % 0 mm
18:26 -14.3 °C -16.7 °C 34520.3 hPa WSW 15.6 km/h 28.5 km/h 74 % 0 mm
18:32 -14.4 °C -16.8 °C 34510.1 hPa WSW 12.7 km/h 25.9 km/h 74 % 0 mm
18:40 -14.5 °C -16.8 °C 34520.3 hPa SW 7.6 km/h 25.9 km/h 75 % 0 mm
18:46 -14.5 °C -16.8 °C 34510.1 hPa SW 10.3 km/h 28.5 km/h 75 % 0 mm
18:52 -14.6 °C -16.7 °C 34520.3 hPa SW 10.3 km/h 23.3 km/h 76 % 0 mm
18:58 -14.6 °C -16.7 °C 34520.3 hPa SW 10.3 km/h 20.8 km/h 77 % 0 mm
19:04 -14.7 °C -16.6 °C 34520.3 hPa SW 15.6 km/h 18.2 km/h 78 % 0 mm
19:10 -14.7 °C -16.7 °C 34520.3 hPa SW 2.3 km/h 18.2 km/h 78 % 0 mm
19:16 -14.8 °C -16.7 °C 34520.3 hPa SSW 17.9 km/h 23.3 km/h 79 % 0 mm
19:22 -14.8 °C -16.7 °C 34520.3 hPa SW 15.6 km/h 23.3 km/h 79 % 0 mm
19:28 -14.9 °C -16.7 °C 34520.3 hPa SW 23 km/h 23.3 km/h 79 % 0 mm
19:34 -14.9 °C -16.7 °C 34520.3 hPa WSW 12.7 km/h 25.9 km/h 79 % 0 mm
19:40 -14.9 °C -16.7 °C 34520.3 hPa WSW 12.7 km/h 31.1 km/h 80 % 0 mm
19:46 -14.9 °C -16.7 °C 34520.3 hPa SSW 15.6 km/h 31.1 km/h 80 % 0 mm
19:52 -14.9 °C -16.7 °C 34520.3 hPa SW 17.9 km/h 28.5 km/h 80 % 0 mm
20:02 -14.9 °C -16.7 °C 34520.3 hPa WNW 12.7 km/h 28.5 km/h 80 % 0 mm
20:08 -15.1 °C -16.7 °C 34520.3 hPa SW 15.6 km/h 20.8 km/h 81 % 0 mm
20:14 -15.1 °C -16.7 °C 34520.3 hPa WSW 10.3 km/h 31.1 km/h 81 % 0 mm
20:20 -14.9 °C -16.7 °C 34520.3 hPa WSW 20.9 km/h 33.6 km/h 80 % 0 mm
20:27 -14.9 °C -16.7 °C 34520.3 hPa WSW 12.7 km/h 33.6 km/h 79 % 0 mm
20:32 -14.8 °C -16.6 °C 34520.3 hPa West 20.9 km/h 38.8 km/h 79 % 0 mm
20:41 -14.8 °C -16.6 °C 34520.3 hPa West 15.6 km/h 33.6 km/h 79 % 0 mm
20:47 -14.8 °C -16.7 °C 34520.3 hPa WSW 12.7 km/h 31.1 km/h 79 % 0 mm
20:53 -14.9 °C -16.7 °C 34520.3 hPa South 15.6 km/h 28.5 km/h 79 % 0 mm
20:59 -14.9 °C -16.7 °C 34520.3 hPa WSW 26.2 km/h 31.1 km/h 80 % 0 mm
21:05 -15 °C -16.8 °C 34520.3 hPa WSW 10.3 km/h 25.9 km/h 80 % 0 mm
21:11 -15.1 °C -16.7 °C 34520.3 hPa WSW 38.8 km/h 38.8 km/h 81 % 0 mm
21:17 -15.1 °C -16.7 °C 34510.1 hPa SW 20.9 km/h 44.1 km/h 81 % 0 mm
21:23 -15.1 °C -16.7 °C 34520.3 hPa SW 17.9 km/h 36.2 km/h 81 % 0 mm
21:29 -15.1 °C -16.6 °C 34510.1 hPa SW 23 km/h 41.4 km/h 82 % 0 mm
21:37 -15.2 °C -16.6 °C 34510.1 hPa WSW 26.2 km/h 41.4 km/h 83 % 0 mm
21:43 -15.2 °C -16.6 °C 34496.6 hPa WSW 20.9 km/h 31.1 km/h 83 % 0 mm
21:49 -15.1 °C -16.6 °C 34496.6 hPa West 17.9 km/h 41.4 km/h 83 % 0 mm
21:55 -15.2 °C -16.6 °C 34496.6 hPa SW 12.7 km/h 33.6 km/h 84 % 0 mm
22:01 -15.2 °C -16.6 °C 34496.6 hPa WSW 31.4 km/h 38.8 km/h 84 % 0 mm
22:07 -15.1 °C -16.5 °C 34520.3 hPa West 28.5 km/h 51.8 km/h 84 % 0 mm
22:13 -15.1 °C -16.5 °C 34520.3 hPa WSW 20.9 km/h 33.6 km/h 84 % 0 mm
22:19 -15.1 °C -16.5 °C 34520.3 hPa WSW 15.6 km/h 31.1 km/h 84 % 0 mm
22:21 -15.1 °C -16.4 °C 34520.3 hPa WSW 23 km/h 41.4 km/h 84 % 0 mm
22:27 -15 °C -16.4 °C 34533.8 hPa SW 15.6 km/h 38.8 km/h 84 % 0 mm
22:33 -14.9 °C -16.3 °C 34533.8 hPa WSW 26.2 km/h 31.1 km/h 84 % 0 mm
22:37 -14.9 °C -16.3 °C 34520.3 hPa WSW 31.4 km/h 36.2 km/h 84 % 0 mm
22:39 -14.9 °C -16.3 °C 34533.8 hPa WSW 20.9 km/h 28.5 km/h 84 % 0 mm
22:41 -14.9 °C -16.3 °C 34520.3 hPa West 20.9 km/h 38.8 km/h 84 % 0 mm
22:47 -14.9 °C -16.2 °C 34510.1 hPa WSW 31.4 km/h 31.4 km/h 85 % 0 mm
22:53 -14.9 °C -16.2 °C 34510.1 hPa WSW 28.5 km/h 44.1 km/h 85 % 0 mm
22:59 -14.9 °C -16.2 °C 34510.1 hPa WSW 28.5 km/h 36.2 km/h 85 % 0 mm
23:05 -14.9 °C -16.2 °C 34496.6 hPa SW 12.7 km/h 28.5 km/h 85 % 0 mm
23:11 -15.1 °C -16.2 °C 34496.6 hPa West 20.9 km/h 38.8 km/h 86 % 0 mm
23:13 -15.1 °C -16.2 °C 34496.6 hPa SW 33.6 km/h 38.8 km/h 86 % 0 mm
23:19 -15 °C -16.2 °C 34496.6 hPa SSW 23 km/h 38.8 km/h 86 % 0 mm
23:25 -14.9 °C -16.1 °C 34496.6 hPa West 31.4 km/h 46.7 km/h 87 % 0 mm
23:27 -14.9 °C -16.1 °C 34496.6 hPa SW 20.9 km/h 41.4 km/h 87 % 0 mm
23:33 -14.9 °C -16 °C 34496.6 hPa SW 28.5 km/h 28.5 km/h 87 % 0 mm
23:39 -14.9 °C -16 °C 34496.6 hPa West 26.2 km/h 33.6 km/h 87 % 0 mm
23:45 -14.9 °C -16 °C 34496.6 hPa SW 20.9 km/h 36.2 km/h 87 % 0 mm
23:51 -14.8 °C -15.8 °C 34496.6 hPa SW 10.3 km/h 36.2 km/h 88 % 0 mm
23:57 -14.8 °C -15.8 °C 34496.6 hPa WSW 23 km/h 38.8 km/h 88 % 0 mm
Meteo18
Compliments of Weather Underground - 4 mb

Script developed by  Jim McMurry - jmcmurry@mwt.net Adapted for the template by  Wim van der Kuil - Leuven-Template.eu

You find our weather info also at:

European Weather Network

Weather Underground

Equipment we use:

Weather-station
Davis Vue

Weather-program
Meteobridge

Weather-server
Raspberry PI 2 B+

Provider
1 and 1

Davis Vue

Meteobridge

Raspberry PI 2 B+

1 and 1